• In Uzbekistan
  • List of Countries
  • For 7 days
  • Water Temperature
  • Satellite Maps
  • Weather Map
  • Weather Widgets
  • user-avatar
    Login

    Hourly Weather Kutul

    Today, 19 June, Tuesday

    Time Temperature Precipitation Wind Pressure Humidity
    00:00 +14°C° 0 mm 1 mps 671 mmHg 72%
    01:00 +14°C° 0 mm 1 mps 671 mmHg 72%
    02:00 +14°C° 0 mm 1 mps 671 mmHg 71%
    03:00 +14°C° 0 mm 1 mps 671 mmHg 69%
    04:00 +15°C° 0 mm 1 mps 672 mmHg 67%
    05:00 +16°C° 0 mm 1 mps 672 mmHg 64%
    06:00 +18°C° 0 mm 1 mps 673 mmHg 61%
    07:00 +20°C° 0 mm 1 mps 673 mmHg 58%
    08:00 +20°C° 0 mm 2 mps 674 mmHg 55%
    09:00 +21°C° 0 mm 2 mps 674 mmHg 52%
    10:00 +21°C° 0 mm 2 mps 674 mmHg 52%
    11:00 +22°C° 0 mm 3 mps 675 mmHg 52%
    12:00 +22°C° 0 mm 3 mps 675 mmHg 52%
    13:00 +22°C° 0 mm 3 mps 675 mmHg 52%
    14:00 +22°C° 0 mm 3 mps 675 mmHg 52%
    15:00 +22°C° 0 mm 3 mps 675 mmHg 53%
    16:00 +23°C° 0 mm 2 mps 675 mmHg 55%
    17:00 +21°C° 0 mm 2 mps 675 mmHg 57%
    18:00 +20°C° 0 mm 2 mps 674 mmHg 60%
    19:00 +19°C° 0 mm 2 mps 674 mmHg 62%
    20:00 +17°C° 0 mm 2 mps 674 mmHg 65%
    21:00 +16°C° 0 mm 1 mps 674 mmHg 68%
    22:00 +16°C° 0 mm 1 mps 674 mmHg 66%
    23:00 +16°C° 0 mm 2 mps 674 mmHg 64%

    Tomorrow, 20 June, Wednesday

    Time Temperature Precipitation Wind Pressure Humidity
    00:00 +16°C° 0 mm 2 mps 674 mmHg 62%
    01:00 +16°C° 0 mm 2 mps 674 mmHg 62%
    02:00 +16°C° 0 mm 1 mps 674 mmHg 62%
    03:00 +15°C° 0 mm 1 mps 674 mmHg 62%
    04:00 +16°C° 0 mm 1 mps 675 mmHg 62%
    05:00 +18°C° 0 mm 1 mps 675 mmHg 61%
    06:00 +19°C° 0 mm 1 mps 676 mmHg 60%
    07:00 +21°C° 0 mm 1 mps 676 mmHg 58%
    08:00 +21°C° 0 mm 2 mps 676 mmHg 55%
    09:00 +23°C° 0 mm 2 mps 676 mmHg 53%
    10:00 +23°C° 0.2 mm 2 mps 676 mmHg 54%
    11:00 +24°C° 0.2 mm 3 mps 676 mmHg 55%
    12:00 +24°C° 0.2 mm 3 mps 676 mmHg 56%
    13:00 +24°C° 0.4 mm 3 mps 676 mmHg 56%
    14:00 +24°C° 0.4 mm 3 mps 676 mmHg 55%
    15:00 +24°C° 0.4 mm 2 mps 676 mmHg 55%
    16:00 +23°C° 0.4 mm 2 mps 676 mmHg 57%
    17:00 +23°C° 0.4 mm 2 mps 676 mmHg 59%
    18:00 +22°C° 0.4 mm 1 mps 676 mmHg 61%
    19:00 +21°C° 0.1 mm 1 mps 676 mmHg 65%
    20:00 +19°C° 0.1 mm 1 mps 676 mmHg 68%
    21:00 +18°C° 0.1 mm 1 mps 676 mmHg 72%
    22:00 +18°C° 0 mm 1 mps 676 mmHg 71%
    23:00 +18°C° 0 mm 1 mps 676 mmHg 70%

    Day after tomorrow, 21 June, Thursday

    Time Temperature Precipitation Wind Pressure Humidity
    00:00 +17°C° 0 mm 2 mps 676 mmHg 70%
    01:00 +17°C° 0 mm 2 mps 676 mmHg 69%
    02:00 +17°C° 0 mm 2 mps 676 mmHg 69%
    03:00 +17°C° 0 mm 2 mps 676 mmHg 69%
    04:00 +18°C° 0.1 mm 1 mps 676 mmHg 67%
    05:00 +19°C° 0.1 mm 1 mps 676 mmHg 66%
    06:00 +20°C° 0.1 mm 1 mps 676 mmHg 64%
    07:00 +21°C° 0.1 mm 1 mps 677 mmHg 60%
    08:00 +23°C° 0.1 mm 2 mps 677 mmHg 56%
    09:00 +24°C° 0.1 mm 2 mps 677 mmHg 52%
    10:00 +24°C° 0.1 mm 2 mps 677 mmHg 51%
    11:00 +25°C° 0.1 mm 2 mps 677 mmHg 49%
    12:00 +25°C° 0.1 mm 2 mps 677 mmHg 48%
    13:00 +26°C° 0.3 mm 2 mps 677 mmHg 47%
    14:00 +26°C° 0.3 mm 2 mps 676 mmHg 47%
    15:00 +26°C° 0.3 mm 2 mps 676 mmHg 47%
    16:00 +25°C° 0.2 mm 2 mps 676 mmHg 49%
    17:00 +24°C° 0.2 mm 2 mps 676 mmHg 52%
    18:00 +24°C° 0.2 mm 1 mps 675 mmHg 54%
    19:00 +22°C° 0 mm 1 mps 675 mmHg 57%
    20:00 +21°C° 0 mm 1 mps 675 mmHg 60%
    21:00 +18°C° 0 mm 2 mps 675 mmHg 62%
    22:00 +18°C° 0 mm 2 mps 675 mmHg 62%
    23:00 +18°C° 0 mm 2 mps 675 mmHg 62%

    22 June, Friday

    Time Temperature Precipitation Wind Pressure Humidity
    00:00 +18°C° 0 mm 2 mps 675 mmHg 61%
    01:00 +18°C° 0 mm 2 mps 675 mmHg 61%
    02:00 +17°C° 0 mm 2 mps 674 mmHg 61%
    03:00 +17°C° 0 mm 2 mps 674 mmHg 61%
    04:00 +19°C° 0 mm 1 mps 674 mmHg 60%
    05:00 +20°C° 0 mm 1 mps 675 mmHg 59%
    06:00 +22°C° 0 mm 1 mps 675 mmHg 58%
    07:00 +23°C° 0 mm 2 mps 675 mmHg 52%
    08:00 +25°C° 0 mm 2 mps 675 mmHg 47%
    09:00 +26°C° 0 mm 2 mps 676 mmHg 41%
    10:00 +27°C° 0 mm 3 mps 675 mmHg 40%
    11:00 +28°C° 0 mm 3 mps 675 mmHg 39%
    12:00 +28°C° 0 mm 4 mps 675 mmHg 38%
    13:00 +28°C° 0.1 mm 4 mps 675 mmHg 38%
    14:00 +28°C° 0.1 mm 4 mps 674 mmHg 39%
    15:00 +28°C° 0.1 mm 3 mps 674 mmHg 39%
    16:00 +27°C° 0 mm 3 mps 673 mmHg 42%
    17:00 +27°C° 0 mm 2 mps 673 mmHg 44%
    18:00 +26°C° 0 mm 2 mps 673 mmHg 47%
    19:00 +24°C° 0 mm 2 mps 672 mmHg 50%
    20:00 +21°C° 0 mm 2 mps 672 mmHg 52%
    21:00 +19°C° 0 mm 2 mps 672 mmHg 55%
    22:00 +19°C° 0 mm 2 mps 672 mmHg 54%
    23:00 +19°C° 0 mm 2 mps 672 mmHg 53%

    23 June, Saturday

    Time Temperature Precipitation Wind Pressure Humidity
    00:00 +19°C° 0 mm 2 mps 672 mmHg 52%
    01:00 +18°C° 0 mm 2 mps 671 mmHg 51%
    02:00 +18°C° 0 mm 2 mps 671 mmHg 50%
    03:00 +18°C° 0 mm 3 mps 671 mmHg 49%
    04:00 +20°C° 0 mm 2 mps 671 mmHg 49%
    05:00 +21°C° 0 mm 2 mps 671 mmHg 49%
    06:00 +23°C° 0 mm 2 mps 672 mmHg 50%
    07:00 +25°C° 0 mm 2 mps 672 mmHg 44%
    08:00 +27°C° 0 mm 2 mps 672 mmHg 39%
    09:00 +29°C° 0 mm 2 mps 673 mmHg 34%
    10:00 +29°C° 0 mm 2 mps 673 mmHg 33%
    11:00 +30°C° 0 mm 3 mps 673 mmHg 33%
    12:00 +31°C° 0 mm 3 mps 673 mmHg 33%
    13:00 +30°C° 0 mm 3 mps 672 mmHg 34%
    14:00 +30°C° 0 mm 3 mps 672 mmHg 35%
    15:00 +30°C° 0 mm 3 mps 672 mmHg 36%
    16:00 +29°C° 0 mm 2 mps 672 mmHg 40%
    17:00 +28°C° 0 mm 2 mps 672 mmHg 44%
    18:00 +27°C° 0 mm 1 mps 672 mmHg 48%
    19:00 +25°C° 0 mm 2 mps 672 mmHg 50%
    20:00 +24°C° 0 mm 2 mps 671 mmHg 53%
    21:00 +21°C° 0 mm 2 mps 671 mmHg 55%
    22:00 +21°C° 0 mm 2 mps 671 mmHg 54%
    23:00 +20°C° 0 mm 2 mps 671 mmHg 53%

    24 June, Sunday

    Time Temperature Precipitation Wind Pressure Humidity
    00:00 +20°C° 0 mm 2 mps 671 mmHg 52%
    01:00 +20°C° 0 mm 2 mps 671 mmHg 51%
    02:00 +20°C° 0 mm 2 mps 671 mmHg 49%
    03:00 +20°C° 0 mm 2 mps 671 mmHg 48%
    04:00 +21°C° 0 mm 2 mps 672 mmHg 49%
    05:00 +23°C° 0 mm 2 mps 673 mmHg 49%
    06:00 +24°C° 0 mm 2 mps 673 mmHg 50%
    07:00 +25°C° 0 mm 2 mps 674 mmHg 48%
    08:00 +27°C° 0 mm 2 mps 674 mmHg 45%
    09:00 +28°C° 0 mm 3 mps 674 mmHg 42%
    10:00 +29°C° 0 mm 3 mps 674 mmHg 42%
    11:00 +30°C° 0 mm 3 mps 675 mmHg 42%
    12:00 +30°C° 0 mm 4 mps 675 mmHg 42%
    13:00 +30°C° 0.1 mm 3 mps 674 mmHg 44%
    14:00 +30°C° 0.1 mm 3 mps 674 mmHg 45%
    15:00 +30°C° 0.1 mm 3 mps 674 mmHg 46%
    16:00 +29°C° 0 mm 3 mps 674 mmHg 50%
    17:00 +28°C° 0 mm 2 mps 674 mmHg 53%
    18:00 +27°C° 0 mm 2 mps 674 mmHg 56%
    19:00 +26°C° 0 mm 2 mps 674 mmHg 60%
    20:00 +24°C° 0 mm 2 mps 674 mmHg 63%
    21:00 +21°C° 0 mm 2 mps 674 mmHg 67%
    22:00 +21°C° 0 mm 2 mps 674 mmHg 64%
    23:00 +21°C° 0 mm 2 mps 674 mmHg 61%
    Show more